Temp
23 22 22 22 23 22 22 22 22 22 22 23 22 22 22 22 21 21 21 21 20 20 20 18 18 18 17 17 17 16 16 16 15 13 12 12 11 11 11 10 10 10 10
24 23 22 22 21 21 22 22 21 20 21 21 22 22 22 21 21 21 21 21 20 19 19 19 19 18 17 17 17 16 15 15 14 14 12 12 11 11 11 11 10 11 11
24 23 22 22 21 21 20 20 20 20 20 21 21 21 21 21 20 20 20 20 20 20 19 19 19 18 17 17 17 17 15 15 14 13 12 12 11 11 11 11 10 11 10
23 23 22 22 21 20 21 21 21 21 21 21 22 21 21 20 20 20 20 20 20 19 19 19 19 18 17 17 17 16 15 14 14 13 12 12 12 12 11 11 10 10 10
23 22 21 21 20 20 20 20 20 20 20 20 21 20 21 21 21 21 20 20 20 19 19 19 19 18 17 17 17 17 16 15 15 13 13 12 12 12 11 11 11 10 10
21 21 21 21 21 22 21 22 22 22 21 21 21 21 21 21 21 21 21 21 20 20 20 20 20 19 17 17 17 17 17 16 15 13 13 13 12 12 12 11 11 11 11
19 19 20 20 20 20 21 21 20 21 21 20 20 21 20 20 22 22 21 21 20 20 20 20 19 19 18 17 17 17 18 17 14 14 13 13 12 12 11 11 11 11 10
17 19 20 19 19 20 20 20 19 20 19 20 20 20 20 20 22 22 21 21 20 20 20 20 19 19 18 17 17 17 18 17 14 12 13 12 12 12 12 11 11 11 11
16 17 17 17 18 18 19 19 19 19 19 19 19 19 20 20 22 21 20 20 21 18 18 18 18 18 18 17 17 16 17 17 15 13 12 12 12 12 12 11 11 11 11
16 18 16 16 17 17 17 17 18 18 19 19 19 19 20 20 20 20 20 19 18 17 18 17 17 17 17 16 17 16 17 17 16 14 13 13 13 12 12 11 12 12 12
15 16 17 18 17 17 17 17 17 18 18 19 19 19 19 19 19 19 19 18 17 17 16 16 16 16 16 16 16 16 17 17 15 14 12 13 13 12 11 12 12 12 12
16 16 15 15 16 19 20 19 18 17 17 18 19 19 18 18 19 20 20 19 18 17 15 15 15 15 15 15 15 15 16 16 14 12 12 12 12 12 12 12 12 12 12
17 17 16 16 16 15 18 18 19 18 18 17 18 18 18 17 18 18 18 18 17 16 15 15 16 15 15 15 15 15 16 16 13 13 13 13 12 12 12 12 13 12 12
16 17 17 16 16 15 16 17 15 16 17 16 16 18 18 17 17 17 17 17 19 17 17 16 16 16 15 15 15 16 16 15 14 14 14 13 13 13 12 11 12 11 12
15 15 15 16 15 15 15 15 14 13 14 15 15 16 17 17 17 17 16 17 18 16 16 16 15 15 15 15 15 16 16 15 14 15 14 14 13 12 12 12 12 12 12
15 15 15 16 16 15 15 14 14 13 13 13 14 15 15 16 16 16 16 16 17 16 16 16 15 15 16 16 16 16 16 15 14 14 14 13 13 12 12 12 12 13 13
14 14 14 15 15 15 15 14 13 13 13 13 13 13 14 15 16 16 17 17 16 16 15 15 15 15 15 16 16 16 15 15 14 14 14 13 13 13 12 12 13 13 13
13 14 13 13 14 14 14 14 13 11 12 12 12 12 13 14 14 15 16 17 17 16 15 15 15 16 16 15 15 15 15 15 14 14 14 13 13 13 13 13 13 13 13
13 13 12 12 12 13 13 13 13 10 11 11 11 12 13 13 13 14 15 14 14 14 15 14 14 15 15 16 15 15 14 14 14 14 13 13 13 13 13 13 13 13 13
13 12 12 12 12 12 12 11 11 10 9 9 10 11 12 12 13 13 13 13 13 14 14 14 14 14 14 14 14 14 14 14 14 14 13 13 13 13 13 13 14 13 13
12 12 11 11 11 10 9 9 9 8 7 8 9 9 10 10 12 12 12 12 13 13 13 13 13 14 14 14 14 14 14 14 14 14 13 13 13 13 13 13 13 13 13
11 10 10 9 8 8 7 6 6 6 7 7 7 7 8 9 10 11 11 12 12 13 13 13 13 13 13 14 14 14 14 14 13 13 13 13 12 13 12 12 13 13 13
9 9 8 7 8 8 6 5 4 5 5 5 6 6 7 8 9 10 11 11 12 12 12 12 13 13 13 13 13 14 14 14 14 13 13 12 12 12 12 12 12 13 13
8 7 7 7 8 6 4 4 5 5 5 5 5 6 7 7 8 9 10 10 10 11 12 12 12 12 12 13 13 13 13 13 13 13 12 12 12 11 11 12 12 12 13
7 7 7 7 5 4 3 3 4 3 3 4 5 6 7 7 7 8 8 9 9 10 10 11 12 12 12 12 12 12 13 14 14 13 12 12 11 11 11 11 12 12 12
7 5 6 6 6 5 3 3 3 3 2 3 3 4 4 5 5 6 6 7 7 8 9 9 10 12 12 13 13 13 13 13 13 13 13 12 12 11 10 11 11 12 12
Height
1524 1525 1529 1530 1532 1534 1537 1538 1539 1540 1541 1541 1541 1541 1540 1539 1538 1538 1537 1537 1537 1536 1536 1530 1532 1529 1529 1527 1525 1524 1523 1521 1520 1520 1521 1521 1523 1524 1524 1526 1527 1526 1527
1518 1522 1525 1529 1531 1533 1534 1536 1537 1538 1538 1538 1538 1537 1536 1536 1535 1534 1533 1533 1532 1532 1532 1529 1530 1527 1526 1525 1524 1521 1520 1521 1520 1519 1519 1520 1521 1523 1524 1524 1526 1527 1527
1516 1521 1524 1525 1529 1531 1533 1534 1535 1536 1536 1535 1535 1534 1533 1532 1532 1531 1532 1530 1529 1529 1528 1526 1525 1524 1524 1523 1522 1521 1520 1519 1519 1518 1519 1520 1521 1525 1524 1525 1525 1526 1525
1515 1519 1522 1526 1527 1529 1531 1532 1532 1532 1532 1531 1530 1529 1527 1527 1527 1525 1526 1526 1525 1524 1524 1523 1522 1521 1520 1520 1519 1518 1517 1519 1518 1518 1518 1519 1522 1525 1525 1525 1524 1524 1524
1513 1516 1517 1520 1523 1525 1525 1528 1530 1530 1531 1529 1526 1525 1523 1521 1521 1522 1522 1522 1520 1519 1521 1520 1520 1518 1517 1517 1516 1516 1516 1518 1518 1518 1518 1519 1521 1520 1524 1523 1522 1517 1522
1515 1516 1518 1519 1521 1519 1521 1521 1526 1524 1523 1523 1523 1522 1521 1519 1517 1518 1517 1517 1517 1515 1517 1518 1517 1516 1515 1515 1514 1514 1512 1514 1516 1517 1516 1518 1520 1522 1523 1523 1521 1521 1519
1514 1514 1515 1517 1517 1517 1519 1517 1516 1516 1516 1517 1519 1517 1515 1514 1515 1513 1513 1514 1513 1512 1513 1514 1514 1513 1513 1514 1513 1513 1511 1510 1514 1514 1514 1517 1519 1521 1523 1523 1522 1519 1517
1512 1512 1513 1513 1513 1513 1511 1511 1511 1510 1512 1512 1512 1511 1509 1509 1508 1507 1508 1508 1508 1507 1507 1508 1509 1510 1512 1512 1512 1511 1511 1509 1512 1514 1514 1515 1517 1519 1521 1523 1523 1519 1518
1510 1511 1511 1512 1512 1511 1511 1509 1509 1510 1509 1507 1505 1506 1504 1502 1502 1502 1502 1502 1502 1502 1502 1504 1506 1507 1510 1512 1511 1510 1509 1509 1510 1513 1514 1514 1517 1519 1520 1522 1522 1521 1518
1510 1510 1511 1511 1511 1512 1511 1510 1509 1509 1507 1505 1502 1500 1499 1498 1500 1499 1500 1498 1499 1499 1498 1501 1503 1506 1509 1510 1510 1512 1509 1508 1510 1512 1513 1513 1516 1519 1521 1521 1521 1521 1519
1510 1510 1510 1509 1510 1509 1509 1508 1508 1506 1503 1500 1498 1497 1499 1498 1498 1498 1496 1495 1496 1497 1497 1496 1500 1505 1507 1508 1509 1510 1510 1508 1509 1511 1514 1514 1516 1519 1520 1521 1521 1520 1519
1508 1509 1510 1509 1508 1508 1507 1507 1505 1503 1501 1499 1497 1497 1500 1498 1498 1496 1495 1493 1493 1493 1493 1496 1499 1502 1504 1506 1507 1508 1510 1509 1510 1512 1515 1516 1516 1520 1519 1519 1520 1521 1520
1507 1507 1507 1507 1506 1504 1503 1501 1500 1497 1495 1496 1496 1496 1497 1497 1496 1495 1493 1492 1491 1491 1492 1494 1496 1498 1501 1504 1505 1507 1509 1509 1512 1515 1517 1517 1516 1518 1520 1520 1520 1521 1521
1506 1507 1507 1505 1504 1503 1501 1499 1498 1497 1496 1495 1495 1496 1496 1496 1495 1493 1491 1489 1490 1489 1489 1491 1493 1496 1499 1502 1504 1505 1508 1510 1514 1516 1516 1514 1515 1516 1518 1521 1522 1523 1523
1507 1508 1507 1506 1504 1504 1502 1500 1499 1498 1497 1495 1495 1494 1495 1493 1494 1490 1490 1488 1488 1488 1488 1489 1490 1491 1494 1498 1501 1503 1506 1508 1513 1515 1514 1513 1514 1516 1518 1520 1523 1525 1527
1509 1509 1508 1506 1506 1505 1503 1501 1499 1497 1495 1494 1494 1493 1492 1491 1491 1489 1487 1487 1484 1485 1485 1485 1487 1490 1491 1494 1498 1500 1502 1505 1509 1513 1513 1512 1514 1516 1518 1521 1523 1526 1527
1507 1507 1506 1505 1504 1504 1502 1500 1498 1496 1494 1492 1492 1492 1490 1488 1487 1487 1485 1484 1481 1482 1482 1483 1483 1485 1488 1491 1496 1497 1500 1503 1506 1510 1511 1512 1514 1517 1518 1520 1523 1524 1528
1505 1504 1502 1502 1502 1502 1500 1500 1496 1494 1492 1491 1490 1488 1488 1486 1484 1483 1482 1482 1479 1480 1481 1480 1481 1482 1485 1488 1492 1493 1497 1499 1503 1507 1508 1510 1512 1515 1518 1519 1521 1524 1526
1501 1500 1501 1500 1500 1500 1499 1498 1496 1492 1491 1489 1486 1485 1484 1483 1481 1480 1480 1480 1477 1478 1480 1479 1478 1479 1482 1484 1487 1489 1493 1496 1499 1502 1505 1507 1510 1514 1516 1518 1520 1522 1524
1499 1501 1500 1498 1500 1498 1497 1494 1491 1489 1487 1486 1483 1481 1480 1479 1478 1477 1478 1477 1476 1475 1476 1475 1474 1476 1477 1478 1481 1485 1488 1491 1495 1498 1500 1500 1506 1511 1515 1518 1518 1519 1521
1499 1500 1498 1498 1498 1497 1492 1490 1488 1486 1484 1482 1481 1479 1477 1476 1476 1475 1473 1473 1475 1474 1473 1472 1471 1472 1472 1474 1476 1479 1482 1487 1490 1493 1495 1498 1503 1507 1511 1514 1516 1517 1521
1497 1498 1497 1495 1493 1491 1488 1486 1484 1482 1481 1479 1477 1475 1473 1472 1471 1471 1470 1470 1469 1470 1469 1469 1469 1469 1469 1469 1471 1473 1476 1481 1484 1487 1490 1494 1499 1502 1505 1509 1513 1515 1518
1498 1497 1495 1494 1489 1487 1484 1481 1479 1478 1476 1475 1473 1471 1469 1467 1467 1466 1466 1465 1466 1465 1465 1465 1466 1466 1466 1467 1468 1469 1470 1475 1478 1480 1484 1488 1492 1497 1502 1506 1509 1514 1516
1497 1495 1494 1489 1486 1484 1481 1478 1476 1475 1473 1472 1470 1468 1465 1464 1463 1462 1461 1460 1459 1459 1459 1459 1460 1461 1463 1464 1465 1465 1467 1470 1472 1474 1478 1484 1487 1492 1495 1499 1505 1510 1513
1497 1494 1491 1488 1487 1483 1479 1476 1474 1473 1471 1468 1466 1463 1461 1460 1459 1458 1456 1455 1454 1453 1453 1453 1454 1455 1458 1460 1461 1462 1465 1466 1467 1469 1473 1478 1481 1486 1491 1497 1501 1506 1509
1498 1494 1492 1490 1485 1481 1479 1476 1473 1471 1468 1465 1462 1460 1458 1456 1456 1454 1453 1451 1449 1449 1448 1447 1448 1448 1451 1454 1456 1457 1459 1463 1466 1468 1470 1472 1475 1481 1487 1492 1497 1501 1504
Wind_Speed
18 18 17 14 11 11 13 18 17 14 15 14 15 14 14 14 14 13 17 18 18 18 13 14 16 14 10 10 8 3 7 9 4 1 4 5 5 6 3 1 1 2 5
20 22 18 14 11 11 10 11 11 13 12 12 12 14 15 17 18 17 17 16 18 17 15 17 15 15 10 10 9 6 5 4 6 5 4 5 4 5 1 5 6 3 4
21 21 18 17 16 15 13 11 11 13 15 15 15 18 20 21 22 20 20 18 15 16 17 16 14 13 10 8 8 5 2 4 3 3 5 3 4 3 2 4 2 5 2
19 17 15 14 12 11 9 10 11 13 14 15 17 20 22 23 23 23 20 18 14 15 14 14 13 12 11 5 5 6 4 3 4 1 6 7 5 4 3 2 7 7 11
17 17 17 17 14 13 12 9 13 15 18 18 17 18 19 19 21 19 18 18 14 16 14 16 11 12 10 6 4 3 7 3 5 7 5 8 5 5 5 5 6 7 11
13 16 17 18 14 12 14 15 22 20 17 21 22 22 23 20 17 16 17 17 15 18 15 15 14 14 11 7 3 2 4 1 11 5 4 6 8 5 5 5 6 1 7
10 11 13 13 13 13 19 24 23 26 26 27 29 22 16 18 16 17 19 18 16 21 19 16 13 12 7 6 2 2 2 1 4 10 10 6 6 8 5 3 1 1 6
3 6 8 9 11 14 18 22 23 23 26 26 23 17 17 19 15 17 18 20 19 20 22 20 13 6 5 5 2 4 4 5 4 6 5 9 9 11 10 3 2 8 6
1 2 6 5 7 9 11 13 13 17 19 19 19 18 16 20 16 14 12 12 14 16 22 18 11 7 5 7 3 0 5 4 1 4 3 3 5 4 8 3 6 8 6
1 1 1 2 3 7 8 8 10 14 19 19 17 12 14 18 12 7 12 12 10 15 18 18 11 8 4 7 6 3 2 5 3 2 4 6 6 8 5 4 6 7 5
3 1 1 2 3 6 7 7 9 10 13 14 11 11 14 12 11 16 16 10 9 14 15 15 12 11 7 9 8 4 2 5 3 7 10 10 9 6 2 5 3 3 4
2 2 0 2 5 6 6 8 9 9 15 12 11 12 8 10 10 11 8 5 7 10 12 9 13 13 8 13 13 8 3 3 8 10 5 5 7 3 8 3 5 6 9
0 1 2 3 6 10 12 10 10 12 13 14 12 12 8 6 12 11 9 9 16 6 7 11 13 13 12 19 15 9 5 5 8 6 5 4 6 9 6 1 7 10 9
3 3 4 7 8 13 14 12 11 12 13 15 14 10 8 11 7 6 8 14 15 10 7 11 11 13 18 20 18 11 9 10 8 4 7 8 8 5 6 6 9 9 8
6 8 6 5 9 7 9 13 12 14 14 15 14 13 14 15 20 21 18 14 12 11 7 13 15 17 20 21 20 14 12 13 12 9 11 11 5 9 8 8 5 8 2
1 1 4 5 6 9 10 9 13 15 13 14 12 12 12 14 17 19 20 13 11 10 12 14 17 18 19 20 21 18 16 14 13 12 13 9 6 11 8 11 10 8 8
3 3 3 4 6 8 9 11 13 13 13 13 14 12 13 13 16 16 17 17 11 10 17 20 20 20 20 19 20 19 18 18 16 16 17 12 11 11 9 11 12 11 10
2 3 3 5 7 9 10 11 14 18 18 15 13 17 13 13 14 16 16 16 13 13 15 22 22 20 20 20 19 17 15 16 20 19 17 12 15 15 13 12 13 12 12
4 3 9 7 6 8 10 11 13 16 17 17 17 15 15 14 14 13 15 13 11 13 15 19 19 21 23 22 21 20 18 18 23 23 18 20 15 14 13 13 13 14 14
7 9 10 9 9 9 9 11 14 20 18 17 17 20 18 15 12 7 13 11 12 11 13 17 16 18 21 20 22 26 22 25 25 26 23 23 22 17 12 14 15 18 16
6 7 10 9 9 10 11 14 17 20 19 18 17 19 18 17 16 14 13 15 11 14 16 14 15 12 15 24 26 26 27 26 31 30 27 22 23 21 14 18 14 13 21
5 7 8 9 10 12 15 12 12 13 16 19 19 19 19 16 16 16 16 17 14 13 15 18 17 15 14 15 18 21 25 32 32 31 29 26 26 24 24 18 18 18 19
7 8 9 9 13 16 14 15 15 15 17 18 18 19 19 18 16 17 18 16 18 16 15 15 18 18 17 14 13 15 18 22 26 31 30 29 27 27 25 23 23 21 22
10 9 10 12 17 17 17 17 15 16 18 18 18 18 19 18 18 18 18 19 19 21 19 17 18 17 17 17 15 13 15 16 18 22 27 28 28 29 29 25 24 25 24
10 12 18 20 18 19 19 18 17 16 16 16 16 16 17 18 17 18 18 18 18 20 19 19 18 18 18 17 17 15 12 11 14 16 21 26 28 31 27 27 26 27 26
10 12 17 26 25 23 19 18 18 17 16 15 14 14 14 14 15 15 15 15 13 16 17 16 18 19 20 20 19 16 12 12 11 12 16 19 24 28 28 29 28 29 26
Wind_Direction
211 217 219 230 233 243 241 239 253 257 254 260 263 271 272 271 270 269 259 262 279 286 297 294 308 318 315 319 337 279 308 302 312 293 344 134 149 186 167 230 129 332 330
221 205 224 235 240 250 256 261 262 274 279 277 279 280 282 282 279 275 280 274 258 281 291 291 307 308 297 319 330 334 331 359 320 356 40 117 135 166 98 115 175 256 301
210 204 205 216 228 228 237 257 263 265 272 281 283 286 289 289 289 283 276 283 281 263 269 281 299 288 292 321 323 357 287 291 345 22 60 149 117 138 151 115 189 244 305
189 195 206 216 236 244 261 277 283 279 278 279 281 282 281 283 283 281 277 271 283 269 273 277 293 277 275 309 325 354 329 157 305 176 86 114 125 100 148 200 236 254 259
186 180 184 198 206 214 217 253 272 273 279 280 266 272 281 289 287 289 283 274 266 267 273 273 287 277 274 290 305 333 303 153 266 179 122 131 173 166 207 212 258 264 276
200 207 217 228 231 226 246 244 283 260 261 276 272 276 285 293 290 291 281 271 267 266 266 272 292 296 255 253 246 351 331 16 186 115 163 170 161 177 191 247 288 351 20
181 179 194 220 223 242 252 262 268 277 278 288 283 292 300 293 295 289 284 273 260 262 257 260 275 299 208 222 236 67 23 14 204 198 169 171 190 179 130 217 326 7 18
237 236 250 261 263 265 258 269 280 277 285 282 282 286 282 288 298 287 273 272 268 260 263 257 258 274 229 219 207 95 72 48 146 184 234 209 204 214 193 198 307 333 340
160 204 221 238 281 306 294 290 283 287 289 289 291 274 286 301 310 288 283 278 267 254 245 238 253 274 238 233 242 72 70 69 185 214 278 167 179 164 146 113 358 298 318
351 134 126 293 267 264 280 291 293 302 305 299 295 277 289 302 319 304 296 301 276 257 241 217 239 210 213 220 225 206 95 72 59 112 121 120 129 145 120 73 74 51 351
126 95 75 297 270 292 306 310 317 328 334 324 304 302 297 303 307 323 308 285 255 257 254 230 206 200 260 225 221 192 95 61 97 100 80 82 106 106 110 267 206 106 35
132 143 232 6 339 321 327 327 346 353 342 344 333 322 307 301 296 335 7 355 328 245 220 244 247 243 254 210 204 186 153 97 107 89 115 89 85 147 256 293 200 93 49
204 297 318 2 353 332 346 345 345 338 329 339 336 338 323 319 285 295 302 312 325 298 225 229 237 222 217 209 194 188 169 129 107 142 160 192 188 211 272 111 115 92 73
49 38 34 29 21 342 350 345 351 336 339 338 331 328 323 331 283 286 322 313 317 316 205 200 191 193 203 196 198 199 168 139 161 177 199 214 241 212 147 85 96 92 76
54 37 16 7 8 16 330 348 349 328 335 328 327 320 305 295 297 302 314 313 298 288 238 202 191 189 192 198 208 205 200 166 190 191 216 231 229 128 141 147 134 140 105
78 299 356 42 6 350 358 351 328 327 335 335 326 315 300 296 298 305 308 303 293 280 249 221 211 212 209 210 212 213 208 190 191 197 221 229 176 156 182 160 166 162 160
94 328 31 7 2 349 338 343 329 331 336 332 332 326 317 301 298 304 307 302 292 276 229 229 227 227 222 220 221 219 218 207 202 198 224 207 182 184 194 171 172 160 175
58 33 13 360 355 334 330 345 322 325 327 332 330 329 317 306 300 303 307 301 286 272 254 234 231 233 233 235 227 218 219 203 206 205 218 204 192 193 202 183 178 176 183
55 350 342 1 338 341 343 319 335 320 324 328 326 315 321 311 305 306 308 315 289 269 259 251 247 245 233 232 232 211 217 215 214 215 207 208 199 189 200 190 186 182 190
20 358 5 0 348 336 324 313 295 295 318 324 325 318 317 316 309 288 294 299 299 282 267 258 255 248 239 228 224 214 216 218 216 218 210 213 182 187 195 202 203 196 186
31 356 357 354 340 334 313 298 294 303 315 320 322 315 314 316 305 303 287 296 283 270 269 250 254 253 240 233 233 228 223 221 224 225 229 219 195 188 198 204 206 207 187
22 7 354 350 322 313 325 336 323 313 310 308 314 314 318 313 306 297 291 283 278 272 260 244 240 237 241 248 236 233 232 229 225 229 230 224 210 199 196 204 208 201 180
38 25 11 343 333 335 333 325 325 317 312 310 309 310 311 312 305 295 288 276 270 264 257 248 233 223 232 243 235 222 224 230 229 230 228 224 216 209 205 205 210 203 189
44 26 9 4 357 354 352 348 338 322 312 308 306 304 304 303 302 295 288 283 272 266 257 250 241 235 233 234 231 228 217 217 220 224 225 226 221 208 207 205 203 202 199
42 25 29 23 13 7 2 354 346 336 327 318 310 305 301 300 299 295 291 280 277 270 254 244 236 223 223 222 220 225 222 215 218 216 214 216 217 212 211 205 202 202 202
47 24 28 26 21 15 3 356 352 345 341 339 334 325 318 312 311 307 299 285 275 266 259 248 235 221 216 220 222 218 215 216 207 203 208 209 209 211 205 206 206 206 206